TimeCDT,TemperatureF,Dew PointF,Humidity,Sea Level PressureIn,VisibilityMPH,Wind Direction,Wind SpeedMPH,Gust SpeedMPH,PrecipitationIn,Events,Conditions,WindDirDegrees,DateUTC
1:53 AM,28.9,17.1,61,30.13,10.0,Calm,Calm,-,N/A,,Clear,0,2013-03-21 06:53:00
2:53 AM,27.0,19.0,72,30.13,10.0,West,3.5,-,N/A,,Clear,280,2013-03-21 07:53:00
3:53 AM,28.0,18.0,66,30.11,10.0,Calm,Calm,-,N/A,,Clear,0,2013-03-21 08:53:00
4:53 AM,25.0,18.0,75,30.12,10.0,Calm,Calm,-,N/A,,Clear,0,2013-03-21 09:53:00
5:53 AM,25.0,17.1,72,30.12,10.0,NW,4.6,-,N/A,,Clear,320,2013-03-21 10:53:00
6:53 AM,25.0,16.0,69,30.13,10.0,WNW,3.5,-,N/A,,Clear,290,2013-03-21 11:53:00
7:53 AM,27.0,16.0,63,30.14,10.0,NNW,3.5,-,N/A,,Clear,340,2013-03-21 12:53:00
8:53 AM,30.0,15.1,54,30.14,10.0,NNE,9.2,-,N/A,,Mostly Cloudy,30,2013-03-21 13:53:00
9:53 AM,32.0,14.0,48,30.14,10.0,ENE,5.8,-,N/A,,Mostly Cloudy,70,2013-03-21 14:53:00
10:53 AM,35.1,16.0,46,30.14,10.0,Calm,Calm,-,N/A,,Clear,0,2013-03-21 15:53:00
11:53 AM,37.9,17.1,43,30.11,10.0,NNW,4.6,-,N/A,,Partly Cloudy,340,2013-03-21 16:53:00
12:53 PM,39.0,16.0,39,30.09,10.0,East,4.6,-,N/A,,Mostly Cloudy,90,2013-03-21 17:53:00
1:53 PM,39.0,19.9,46,30.06,10.0,South,5.8,-,N/A,,Overcast,170,2013-03-21 18:53:00
2:53 PM,39.9,17.1,40,30.02,10.0,East,8.1,-,N/A,,Mostly Cloudy,80,2013-03-21 19:53:00
3:53 PM,41.0,23.0,49,30.00,10.0,SE,9.2,-,N/A,,Partly Cloudy,130,2013-03-21 20:53:00
4:53 PM,39.9,21.9,49,30.02,10.0,SSE,6.9,-,N/A,,Overcast,160,2013-03-21 21:53:00
5:53 PM,39.9,23.0,51,30.02,10.0,SE,8.1,-,N/A,,Overcast,130,2013-03-21 22:53:00
6:53 PM,37.9,24.1,57,30.02,10.0,South,6.9,-,N/A,,Overcast,190,2013-03-21 23:53:00
7:53 PM,34.0,28.0,79,30.03,2.5,SSW,8.1,-,0.00,Snow,Light Snow,200,2013-03-22 00:53:00
8:01 PM,33.8,28.4,81,30.01,2.0,South,6.9,-,0.00,Snow,Light Snow,190,2013-03-22 01:01:00
8:11 PM,33.8,30.2,87,30.01,1.8,SSW,5.8,-,0.00,Snow,Light Snow,200,2013-03-22 01:11:00
8:53 PM,33.1,30.9,92,30.03,1.2,Calm,Calm,-,0.03,Snow,Light Snow,0,2013-03-22 01:53:00
9:10 PM,33.8,30.2,87,30.02,1.5,SSW,3.5,-,0.01,Snow,Light Snow,210,2013-03-22 02:10:00
9:41 PM,33.8,30.2,87,30.02,1.2,Calm,Calm,-,0.03,Snow,Light Snow,0,2013-03-22 02:41:00
9:51 PM,33.8,30.2,87,30.02,1.5,Calm,Calm,-,0.03,Snow,Light Snow,0,2013-03-22 02:51:00
9:53 PM,33.1,30.0,89,30.04,1.5,Calm,Calm,-,0.03,Snow,Light Snow,0,2013-03-22 02:53:00
10:09 PM,33.8,30.2,87,30.02,1.2,Calm,Calm,-,0.01,Snow,Light Snow,0,2013-03-22 03:09:00
10:15 PM,33.8,30.2,87,30.02,1.2,Calm,Calm,-,0.01,Snow,Light Snow,0,2013-03-22 03:15:00
10:53 PM,33.1,30.9,92,30.04,1.2,Calm,Calm,-,0.03,Snow,Light Snow,0,2013-03-22 03:53:00
11:14 PM,33.8,30.2,87,30.01,1.5,Calm,Calm,-,0.01,Snow,Light Snow,0,2013-03-22 04:14:00
11:43 PM,33.8,30.2,87,30.01,1.5,Calm,Calm,-,0.02,Snow,Light Snow,0,2013-03-22 04:43:00